RYR4VN EPKK-LGRP

Flight info

Callsign RYR4VN
Flight time N/A
Altitude 23000
Route REGTO T195 RAZEC/N0435F370 DCT KEKED DCT KARIL DCT LAMIT DCT TIMUR DCT NIKTI DCT MES UN139 LURUS UL995 CODIC
Aircraft B738/M-SDE2E3FGHIRWXY/LB1

Departure

Time N/A
Airport Kraków John Paul II International Airport (EPKK)

Arrival

Time 2026-05-03 20:29
Airport Rhodes International Airport "Diagoras" (LGRP)
Time Latitude Longitude Altitude Speed Heading
2026-05-03 20:15 36.39929 27.84234 11750 ft 309 kts 114°
2026-05-03 20:15 36.38953 27.86603 11442 ft 307 kts 114°
2026-05-03 20:15 36.37994 27.88934 11129 ft 306 kts 114°
2026-05-03 20:15 36.37027 27.91280 10822 ft 304 kts 114°
2026-05-03 20:16 36.36064 27.93616 10496 ft 304 kts 114°
2026-05-03 20:16 36.35103 27.95946 10204 ft 302 kts 114°
2026-05-03 20:16 36.34146 27.98263 9943 ft 300 kts 114°
2026-05-03 20:16 36.33202 28.00545 9743 ft 295 kts 114°
2026-05-03 20:17 36.32265 28.02812 9414 ft 295 kts 114°
2026-05-03 20:17 36.31341 28.05045 9104 ft 295 kts 114°
2026-05-03 20:17 36.30404 28.07310 8718 ft 296 kts 114°
2026-05-03 20:17 36.29466 28.09576 8389 ft 295 kts 114°
2026-05-03 20:18 36.28529 28.11833 8077 ft 294 kts 114°
2026-05-03 20:18 36.27595 28.14084 7757 ft 292 kts 114°
2026-05-03 20:18 36.26667 28.16320 7460 ft 291 kts 114°
2026-05-03 20:18 36.25746 28.18540 7164 ft 289 kts 114°
2026-05-03 20:19 36.24827 28.20750 6871 ft 288 kts 114°
2026-05-03 20:19 36.23912 28.22948 6586 ft 286 kts 114°
2026-05-03 20:19 36.23073 28.25134 6308 ft 282 kts 103°
2026-05-03 20:19 36.22937 28.27509 6019 ft 268 kts 73°
2026-05-03 20:20 36.23630 28.29565 5765 ft 253 kts 47°
2026-05-03 20:20 36.24864 28.30993 5692 ft 238 kts 27°
2026-05-03 20:20 36.26362 28.31837 5493 ft 237 kts 10°
2026-05-03 20:20 36.27985 28.32013 5314 ft 235 kts 357°
2026-05-03 20:21 36.29616 28.31969 5087 ft 240 kts 356°
2026-05-03 20:21 36.31297 28.31906 4867 ft 243 kts 356°
2026-05-03 20:21 36.32976 28.31844 4688 ft 235 kts 356°
2026-05-03 20:21 36.34539 28.31790 4566 ft 215 kts 356°
2026-05-03 20:22 36.35980 28.31742 4359 ft 199 kts 356°
2026-05-03 20:22 36.37313 28.31697 4178 ft 185 kts 356°
2026-05-03 20:22 36.38565 28.31656 3940 ft 175 kts 356°
2026-05-03 20:22 36.39750 28.31617 3747 ft 165 kts 356°
2026-05-03 20:23 36.40870 28.31580 3602 ft 163 kts 356°
2026-05-03 20:23 36.42031 28.31542 3465 ft 170 kts 356°
2026-05-03 20:23 36.43238 28.31502 3313 ft 177 kts 356°
2026-05-03 20:23 36.44480 28.31427 3135 ft 178 kts 347°
2026-05-03 20:24 36.45540 28.30716 2973 ft 173 kts 317°
2026-05-03 20:24 36.46127 28.29459 2810 ft 167 kts 290°
2026-05-03 20:24 36.46151 28.28048 2621 ft 165 kts 263°
2026-05-03 20:24 36.45775 28.26705 2489 ft 164 kts 259°
2026-05-03 20:25 36.45397 28.25362 2353 ft 165 kts 258°
2026-05-03 20:25 36.45016 28.24026 2194 ft 163 kts 258°
2026-05-03 20:25 36.44639 28.22716 2047 ft 160 kts 259°
2026-05-03 20:25 36.44284 28.21428 1907 ft 160 kts 258°
2026-05-03 20:26 36.43909 28.20126 1693 ft 160 kts 258°
2026-05-03 20:26 36.43537 28.18860 1488 ft 149 kts 257°
2026-05-03 20:26 36.43190 28.17681 1299 ft 143 kts 258°
2026-05-03 20:26 36.42864 28.16571 1100 ft 133 kts 259°
2026-05-03 20:27 36.42559 28.15525 938 ft 128 kts 259°
2026-05-03 20:27 36.42252 28.14482 769 ft 129 kts 259°
2026-05-03 20:27 36.41947 28.13434 623 ft 130 kts 258°
2026-05-03 20:27 36.41637 28.12377 432 ft 130 kts 257°
2026-05-03 20:28 36.41327 28.11332 264 ft 131 kts 255°
2026-05-03 20:28 36.41012 28.10264 68 ft 128 kts 258°
2026-05-03 20:28 36.40753 28.09335 27 ft 80 kts 248°
2026-05-03 20:28 36.40599 28.08825 27 ft 57 kts 250°
2026-05-03 20:29 36.40474 28.08401 27 ft 48 kts 250°
2026-05-03 20:29 36.40370 28.08060 27 ft 33 kts 242°
2026-05-03 20:29 36.40246 28.07919 27 ft 22 kts 220°
2026-05-03 20:29 36.40158 28.07901 27 ft 7 kts 137°
2026-05-03 20:30 36.40154 28.07932 27 ft 4 kts 71°
2026-05-03 20:30 36.40165 28.07968 27 ft 5 kts 69°
2026-05-03 20:30 36.40182 28.08026 27 ft 9 kts 70°
2026-05-03 20:30 36.40208 28.08116 27 ft 13 kts 71°
2026-05-03 20:31 36.40244 28.08243 27 ft 18 kts 71°
2026-05-03 20:31 36.40290 28.08402 27 ft 22 kts 70°
2026-05-03 20:31 36.40342 28.08579 27 ft 19 kts 70°
2026-05-03 20:31 36.40389 28.08740 27 ft 19 kts 69°
2026-05-03 20:32 36.40374 28.08862 27 ft 12 kts 122°
2026-05-03 20:32 36.40310 28.08905 27 ft 7 kts 161°
2026-05-03 20:32 36.40299 28.08911 27 ft 0 kts 160°